When you browse on this site, cookies collect data to enhance your experience and personalize the content and advertising you see.
Visit our Privacy Policy to learn more. By continuing to use the site, you agree to this use of cookies and data.
  • In Denmark
  • List of Countries
  • For 7 days
  • Water Temperature
  • Satellite Maps
  • Weather Map
  • Weather Widgets
  • user-avatar
    Login

    Hourly Weather Carmarthen

    Today, 18 February, Monday

    Time Temperature Precipitation Wind Pressure Humidity
    00:00 +5°C° 0 mm 10 mps 749 mmHg 79%
    01:00 +5°C° 0 mm 9 mps 749 mmHg 80%
    02:00 +5°C° 0 mm 9 mps 749 mmHg 80%
    03:00 +5°C° 0 mm 9 mps 750 mmHg 81%
    04:00 +3°C° 0 mm 9 mps 750 mmHg 80%
    05:00 +3°C° 0 mm 9 mps 750 mmHg 79%
    06:00 +2°C° 0 mm 9 mps 750 mmHg 79%
    07:00 +3°C° 0 mm 9 mps 750 mmHg 79%
    08:00 +3°C° 0 mm 10 mps 750 mmHg 79%
    09:00 +3°C° 0 mm 10 mps 750 mmHg 79%
    10:00 +5°C° 0 mm 10 mps 750 mmHg 78%
    11:00 +6°C° 0 mm 9 mps 750 mmHg 77%
    12:00 +7°C° 0 mm 9 mps 750 mmHg 75%
    13:00 +7°C° 0.1 mm 8 mps 750 mmHg 76%
    14:00 +7°C° 0.1 mm 8 mps 750 mmHg 77%
    15:00 +7°C° 0.1 mm 8 mps 751 mmHg 78%
    16:00 +6°C° 0.1 mm 7 mps 751 mmHg 81%
    17:00 +5°C° 0.1 mm 7 mps 751 mmHg 85%
    18:00 +5°C° 0.1 mm 6 mps 752 mmHg 88%
    19:00 +4°C° 0 mm 6 mps 752 mmHg 90%
    20:00 +4°C° 0 mm 6 mps 753 mmHg 91%
    21:00 +4°C° 0 mm 6 mps 754 mmHg 92%
    22:00 +4°C° 0 mm 6 mps 754 mmHg 93%
    23:00 +3°C° 0 mm 6 mps 755 mmHg 93%

    Tomorrow, 19 February, Tuesday

    Time Temperature Precipitation Wind Pressure Humidity
    00:00 +3°C° 0 mm 6 mps 755 mmHg 94%
    01:00 +3°C° 0 mm 6 mps 756 mmHg 94%
    02:00 +3°C° 0 mm 6 mps 756 mmHg 94%
    03:00 +3°C° 0 mm 6 mps 756 mmHg 94%
    04:00 +2°C° 0 mm 6 mps 756 mmHg 94%
    05:00 +2°C° 0 mm 6 mps 756 mmHg 93%
    06:00 +1°C° 0 mm 5 mps 756 mmHg 93%
    07:00 +1°C° 0 mm 5 mps 756 mmHg 91%
    08:00 +2°C° 0 mm 5 mps 756 mmHg 88%
    09:00 +2°C° 0 mm 5 mps 756 mmHg 85%
    10:00 +3°C° 0 mm 6 mps 756 mmHg 84%
    11:00 +4°C° 0 mm 6 mps 756 mmHg 82%
    12:00 +5°C° 0 mm 7 mps 756 mmHg 80%
    13:00 +5°C° 0.4 mm 8 mps 755 mmHg 83%
    14:00 +5°C° 0.4 mm 9 mps 754 mmHg 86%
    15:00 +5°C° 0.4 mm 9 mps 753 mmHg 89%
    16:00 +5°C° 1 mm 10 mps 753 mmHg 90%
    17:00 +6°C° 1 mm 10 mps 752 mmHg 91%
    18:00 +6°C° 1 mm 10 mps 752 mmHg 92%
    19:00 +6°C° 1.5 mm 10 mps 751 mmHg 92%
    20:00 +6°C° 1.5 mm 10 mps 751 mmHg 93%
    21:00 +7°C° 1.5 mm 10 mps 750 mmHg 93%
    22:00 +7°C° 1.2 mm 9 mps 750 mmHg 93%
    23:00 +8°C° 1.2 mm 9 mps 750 mmHg 93%

    Day after tomorrow, 20 February, Wednesday

    Time Temperature Precipitation Wind Pressure Humidity
    00:00 +8°C° 1.2 mm 9 mps 750 mmHg 93%
    01:00 +9°C° 0.2 mm 8 mps 750 mmHg 92%
    02:00 +10°C° 0.2 mm 8 mps 750 mmHg 92%
    03:00 +10°C° 0.2 mm 8 mps 750 mmHg 91%
    04:00 +10°C° 0 mm 9 mps 750 mmHg 91%
    05:00 +10°C° 0 mm 9 mps 749 mmHg 90%
    06:00 +10°C° 0 mm 9 mps 749 mmHg 90%
    07:00 +10°C° 0.1 mm 9 mps 750 mmHg 90%
    08:00 +10°C° 0.1 mm 9 mps 750 mmHg 90%
    09:00 +10°C° 0.1 mm 9 mps 751 mmHg 90%
    10:00 +10°C° 0.1 mm 8 mps 752 mmHg 88%
    11:00 +10°C° 0.1 mm 7 mps 752 mmHg 87%
    12:00 +11°C° 0.1 mm 6 mps 753 mmHg 85%
    13:00 +10°C° 0 mm 5 mps 753 mmHg 87%
    14:00 +10°C° 0 mm 5 mps 754 mmHg 89%
    15:00 +11°C° 0 mm 4 mps 754 mmHg 91%
    16:00 +11°C° 0 mm 4 mps 754 mmHg 92%
    17:00 +10°C° 0 mm 5 mps 754 mmHg 93%
    18:00 +10°C° 0 mm 5 mps 755 mmHg 94%
    19:00 +10°C° 0 mm 5 mps 755 mmHg 94%
    20:00 +9°C° 0 mm 6 mps 755 mmHg 94%
    21:00 +9°C° 0 mm 6 mps 755 mmHg 94%
    22:00 +9°C° 0 mm 7 mps 756 mmHg 94%
    23:00 +9°C° 0 mm 7 mps 756 mmHg 93%

    21 February, Thursday

    Time Temperature Precipitation Wind Pressure Humidity
    00:00 +10°C° 0 mm 7 mps 757 mmHg 93%
    01:00 +10°C° 0 mm 7 mps 757 mmHg 92%
    02:00 +10°C° 0 mm 7 mps 757 mmHg 92%
    03:00 +10°C° 0 mm 8 mps 757 mmHg 92%
    04:00 +10°C° 0 mm 8 mps 757 mmHg 91%
    05:00 +10°C° 0 mm 8 mps 758 mmHg 91%
    06:00 +10°C° 0 mm 8 mps 758 mmHg 90%
    07:00 +10°C° 0 mm 8 mps 758 mmHg 90%
    08:00 +10°C° 0 mm 8 mps 759 mmHg 90%
    09:00 +10°C° 0 mm 8 mps 760 mmHg 89%
    10:00 +10°C° 0 mm 8 mps 760 mmHg 88%
    11:00 +11°C° 0 mm 9 mps 761 mmHg 86%
    12:00 +11°C° 0 mm 9 mps 761 mmHg 84%
    13:00 +11°C° 0 mm 9 mps 761 mmHg 83%
    14:00 +11°C° 0 mm 9 mps 761 mmHg 82%
    15:00 +11°C° 0 mm 9 mps 761 mmHg 81%
    16:00 +10°C° 0 mm 9 mps 761 mmHg 81%
    17:00 +10°C° 0 mm 9 mps 762 mmHg 82%
    18:00 +8°C° 0 mm 9 mps 762 mmHg 83%
    19:00 +8°C° 0 mm 9 mps 762 mmHg 84%
    20:00 +8°C° 0 mm 9 mps 762 mmHg 85%
    21:00 +8°C° 0 mm 9 mps 763 mmHg 85%
    22:00 +8°C° 0 mm 10 mps 763 mmHg 85%
    23:00 +8°C° 0 mm 10 mps 762 mmHg 84%

    22 February, Friday

    Time Temperature Precipitation Wind Pressure Humidity
    00:00 +9°C° 0 mm 11 mps 762 mmHg 83%
    01:00 +9°C° 0 mm 11 mps 762 mmHg 82%
    02:00 +9°C° 0 mm 10 mps 762 mmHg 81%
    03:00 +9°C° 0 mm 10 mps 762 mmHg 80%
    04:00 +9°C° 0 mm 10 mps 763 mmHg 80%
    05:00 +9°C° 0 mm 11 mps 763 mmHg 80%
    06:00 +9°C° 0 mm 11 mps 763 mmHg 80%
    07:00 +9°C° 0.1 mm 10 mps 764 mmHg 82%
    08:00 +9°C° 0.1 mm 10 mps 764 mmHg 84%
    09:00 +10°C° 0.1 mm 9 mps 764 mmHg 86%
    10:00 +11°C° 0 mm 10 mps 765 mmHg 83%
    11:00 +11°C° 0 mm 10 mps 765 mmHg 80%
    12:00 +12°C° 0 mm 10 mps 765 mmHg 77%
    13:00 +12°C° 0 mm 10 mps 765 mmHg 76%
    14:00 +12°C° 0 mm 10 mps 765 mmHg 74%
    15:00 +12°C° 0 mm 10 mps 765 mmHg 73%
    16:00 +12°C° 0 mm 10 mps 765 mmHg 74%
    17:00 +11°C° 0 mm 10 mps 765 mmHg 75%
    18:00 +11°C° 0 mm 10 mps 765 mmHg 76%
    19:00 +9°C° 0 mm 10 mps 766 mmHg 75%
    20:00 +9°C° 0 mm 10 mps 766 mmHg 75%
    21:00 +9°C° 0 mm 10 mps 766 mmHg 75%
    22:00 +9°C° 0 mm 10 mps 766 mmHg 74%
    23:00 +10°C° 0 mm 9 mps 766 mmHg 73%

    23 February, Saturday

    Time Temperature Precipitation Wind Pressure Humidity
    00:00 +10°C° 0 mm 9 mps 766 mmHg 73%
    01:00 +10°C° 0 mm 9 mps 767 mmHg 73%
    02:00 +10°C° 0 mm 9 mps 767 mmHg 74%
    03:00 +8°C° 0 mm 9 mps 767 mmHg 75%
    04:00 +9°C° 0 mm 8 mps 767 mmHg 78%
    05:00 +9°C° 0 mm 8 mps 767 mmHg 82%
    06:00 +8°C° 0 mm 7 mps 767 mmHg 85%
    07:00 +8°C° 0 mm 7 mps 767 mmHg 85%
    08:00 +9°C° 0 mm 7 mps 768 mmHg 86%
    09:00 +9°C° 0 mm 7 mps 768 mmHg 86%
    10:00 +10°C° 0 mm 7 mps 768 mmHg 83%
    11:00 +11°C° 0 mm 7 mps 768 mmHg 80%
    12:00 +12°C° 0 mm 7 mps 768 mmHg 77%
    13:00 +12°C° 0 mm 7 mps 768 mmHg 77%
    14:00 +14°C° 0 mm 7 mps 768 mmHg 77%
    15:00 +14°C° 0 mm 6 mps 768 mmHg 77%
    16:00 +13°C° 0 mm 6 mps 768 mmHg 81%
    17:00 +10°C° 0 mm 6 mps 768 mmHg 86%
    18:00 +9°C° 0 mm 5 mps 768 mmHg 90%
    19:00 +8°C° 0 mm 5 mps 768 mmHg 91%
    20:00 +8°C° 0 mm 5 mps 769 mmHg 92%
    21:00 +7°C° 0 mm 5 mps 769 mmHg 93%
    22:00 +7°C° 0 mm 5 mps 769 mmHg 93%
    23:00 +7°C° 0 mm 4 mps 769 mmHg 93%
    Show more